Content
SEND FEEDBACK

Daily
Averages
Monthly
Summary
United States of America

RAPID CITY, SOUTH DAKOTA


Home > North America > United States > South Dakota
Elevation: 3162 feet     Latitude: 44 03N     Longitude: 103 04W

WEATHER
 
SELECT A DAY
Number of Records: 202,792;   Date Range: 1/1/95 - 9/30/14
 
SHARE

PRINT THIS DATA

[ ← Previous Day ]
WEATHER ALMANAC - JULY 11, 2013
[ Next Day → ]
[ °C ]   °F
Weather ElementAverageHighLow
Temperature83.5 °F99 °F (4:52 pm)66.9 °F (5:52 am)
Dewpoint59.1 °F64.9 °F (8:52 am)51.1 °F (4:52 pm)
Humidity47.4 %81 % (5:52 am)20 % (4:52 pm)
Barometer29.78 in29.90 in (1:52 am)29.67 in (4:52 pm)
Wind Speed11.3 mph18.4 mph (1:52 pm)
Wind Gust29.9 mph (8:21 pm)
Weather ElementAverage
Visibility10 mi
Wind DirectionSSE (171.3 °)

Weather ElementTotal
Precipitation---
Cooling Degree Days18 (Base 65)
Growing Degree Days33 (Base 50)
Averaged from 24 records on July 11, 2013
WEATHER CONDITIONS BREAKOUT
WIND DIRECTION BREAKOUT
WEATHER BY HOUR - JULY 11, 2013
[ °C ]   °F
Local TimeTemperatureDewpointHumidityBarometerVisibilityWind DirectionWind SpeedGust SpeedPrecipitationEventsConditions
1:52 AM72.0 °F57.9 °F61 %29.90 in10.0 miSSE (160°)4.6 mphClear
2:52 AM73.9 °F60.1 °F62 %29.88 in10.0 miSSW (200°)8.1 mphScattered Clouds
3:52 AM69.1 °F60.1 °F73 %29.89 in10.0 miSSE (150°)10.4 mphClear
4:52 AM69.1 °F61.0 °F75 %29.87 in10.0 miSSW (210°)6.9 mphClear
5:52 AM66.9 °F61.0 °F81 %29.86 in10.0 miSE (130°)3.5 mphClear
6:52 AM70.0 °F63.0 °F78 %29.86 in10.0 miSE (140°)4.6 mphClear
7:52 AM75.0 °F64.0 °F69 %29.86 in10.0 miSE (140°)4.6 mphClear
8:52 AM79.0 °F64.9 °F62 %29.85 in10.0 miSE (140°)6.9 mphClear
9:52 AM82.9 °F64.9 °F54 %29.83 in10.0 miSouth (170°)10.4 mphClear
10:52 AM87.1 °F64.9 °F48 %29.81 in10.0 miSouth (170°)12.7 mphClear
11:52 AM91.0 °F59.0 °F34 %29.79 in10.0 miSSE (160°)13.8 mph21.9 mphClear
12:52 PM93.9 °F61.0 °F33 %29.76 in10.0 miSouth (170°)15.0 mph24.2 mphClear
1:52 PM95.0 °F62.1 °F33 %29.74 in10.0 miSouth (170°)18.4 mphClear
2:52 PM96.1 °F62.1 °F32 %29.73 in10.0 miSouth (170°)16.1 mph23.0 mphClear
3:52 PM98.1 °F59.0 °F27 %29.70 in10.0 miSSE (160°)15.0 mph26.5 mphClear
4:52 PM99.0 °F51.1 °F20 %29.67 in10.0 miSSE (150°)18.4 mph25.3 mphClear
5:52 PM97.0 °F55.0 °F24 %29.67 in10.0 miSouth (170°)18.4 mph28.8 mphClear
6:52 PM91.0 °F55.0 °F29 %29.67 in10.0 miSSE (160°)16.1 mph23.0 mphClear
7:52 PM88.0 °F55.9 °F34 %29.69 in10.0 miSouth (170°)11.5 mphClear
8:21 PM86.0 °F53.6 °F33 %29.85 in10.0 miWest (270°)18.4 mph29.9 mphPartly Cloudy
8:52 PM88.0 °F52.0 °F29 %29.71 in10.0 miWNW (300°)5.8 mphMostly Cloudy
9:52 PM77.0 °F57.0 °F50 %29.69 in10.0 miSSE (150°)11.5 mph0.00 inClear
10:52 PM81.0 °F57.0 °F44 %29.69 in10.0 miSSE (160°)10.4 mphClear
11:52 PM77.0 °F57.9 °F52 %29.68 in10.0 miSE (140°)9.2 mphClear
Hourly data recorded from KRAP, located miles away from Rapid City, South Dakota







STORIES FROM OUR PARTNERS